"Pseudo-MPEC" for C1DR382

Created 2019 Nov 13 10:07:04 UT using Find_Orb

Click here for an explanation of pseudo-MPECs

 
 Astrometry: 
     C1DR382  C2019 11 04.19153 01 10 35.98 +29 29 21.7    ~B45M 21.6 GVNEOCPG96
     C1DR382  C2019 11 04.20199 01 10 34.63 +29 29 13.5    ~B45M 21.8 GVNEOCPG96
     C1DR382  C2019 11 04.20723 01 10 33.91 +29 29 08.8    ~B45M 21.5 GVNEOCPG96
     C1DR382  C2019 11 04.23459501 10 30.46 +29 28 50.8    ~B46M 21.9 GVNEOCPH01
     C1DR382  C2019 11 04.23868001 10 29.94 +29 28 48.0    ~B46M 21.8 GVNEOCPH01
     C1DR382  C2019 11 04.25597 01 10 27.76 +29 28 35.8    ~B46q 21.6 GVNEOCPG96
     C1DR382  C2019 11 04.25605201 10 27.72 +29 28 35.7    ~B46M 21.8 GVNEOCPH01
     C1DR382  C2019 11 04.25851 01 10 27.51 +29 28 34.4    ~B46q 22.2 GVNEOCPG96
     C1DR382  C2019 11 04.25941201 10 27.30 +29 28 33.4    ~B46M 22.0 GVNEOCPH01
     C1DR382  C2019 11 04.26104 01 10 27.18 +29 28 33.3    ~B46q 22.4 GVNEOCPG96
     C1DR382  C2019 11 05.15271 01 08 39.04 +29 17 59.5    ~B54M 21.4 GVNEOCPI52
     C1DR382  C2019 11 05.15780 01 08 38.39 +29 17 55.8    ~B54M 22.0 GVNEOCPI52
     C1DR382  C2019 11 05.16530 01 08 37.47 +29 17 50.6    ~B54M 22.8 GVNEOCPI52
     C1DR382  C2019 11 05rLpOUMMJZi'y!$XA51AstrometryOSTredacted;w'clickA-TUNF51
     C1DR382  C2019 11 05x\D'7KTa_CC_xG=??,*[^.3?Phere@M0forPVb2TiIwee@.$s/u8F51
     C1DR382  C2019 11 05('explanationw(=5kP.up[+FkmXF6(3GES/JLE?'p)D+Nt9IjNTF51

Station data:
(F51) Pan-STARRS 1, Haleakala  (N20.707235 W156.255910)  US/Hawaii.
   Observers N. Primak, A. Schultz, S. Watters, J. Thiel, T. Goggia. Measurer
   PS1 Science Consortium. 1.8-m Ritchey-Chrétien + CCD.
(G96) Mt. Lemmon Survey  (N32.442754 W110.788720)  US/Arizona.  Observers T.
   A. Pruyne, B. M. Africano, E. J. Christensen, G. A. Farneth, D. C. Fuls,
   A. R. Gibbs, A. D. Grauer, H. Gröller, J. A. Johnson, R. A. Kowalski, S.
   M. Larson, G. J. Leonard, D. Rankin, R. L. Seaman, F. C. Shelly. 1.5-m
   reflector + 10K CCD.
(H01) Magdalena Ridge Observatory, Socorro  (N33.984833 W107.189333)  US/New
   Mexico.  Observers W. H. Ryan, E. V. Ryan. Measurer W. H. Ryan. 2.4-m
   f/8.9 reflector + CCD.
(I52) Steward Observatory, Mt. Lemmon Station  (N32.442547 W110.788920)
   US/Arizona.  Observers T. A. Pruyne, B. M. Africano, E. J. Christensen, G.
   A. Farneth, D. C. Fuls, A. R. Gibbs, A. D. Grauer, H. Gröller, J. A.
   Johnson, R. A. Kowalski, S. M. Larson, G. J. Leonard, D. Rankin, R. L.
   Seaman, F. C. Shelly. 1.0-m reflector + CCD.

Orbital elements:  C1DR382
   Perihelion 2020 Mar 26.058335 +/- 8.05 TT =  1:24:00 (JD 2458934.558335)
Epoch 2019 Nov  5.0 TT = JDT 2458792.5   Earth MOID: 0.0394   Ma: 0.0971
M 298.79974885 +/- 12               (J2000 ecliptic)          AutoNEOCP
n   0.43081070 +/- 0.0669           Peri.  221.89935 +/- 2.3
a   1.73624787 +/- 0.183            Node   296.43354 +/- 5.1
e   0.5250878 +/- 0.0723            Incl.    9.27522 +/- 0.46
P   2.29/835.62d           H 20.7   G  0.15   U 10.9  
q 0.82456513 +/- 0.0419    Q 2.64793061 +/- 0.397
From 16 observations 2019 Nov. 4-5 (31.2 hr); mean residual 0".37
Residuals in arcseconds: 
191104 G96  .39+  .85+    191104 H01  .23-  .04-    191105 I52  .12+  .00     
191104 G96  .05+  .15-    191104 G96  .55+  .05+    191105 F51  .02+  .03-    
191104 G96  .69-  1.2-    191104 H01  .17-  .02+    191105 F51  .07-  .05+    
191104 H01  .09+  .04+    191104 G96  .42+  .73+    191105 F51  .02+  .08+    
191104 H01  .05+  .09+    191105 I52  .04+  .02-    
191104 G96  .39-  .33-    191105 I52  .13-  .12-    

Ephemerides (geocentric):
Date (UTC) HH   RA              Dec         delta   r     elong  mag " sig PA
---- -- -- --  -------------   -----------  ------ ------ -----  --- ---- ---
2019 11 13 10  00 52 53.066   +27 25 45.41  .78262 1.6986 146.6 22.3  137  78
2019 11 13 11  00 52 48.665   +27 25 08.17  .78254 1.6983 146.6 22.3  139  78
2019 11 13 12  00 52 44.268   +27 24 30.91  .78246 1.6981 146.5 22.3  140  78
2019 11 13 13  00 52 39.876   +27 23 53.62  .78238 1.6978 146.5 22.3  141  78
2019 11 13 14  00 52 35.488   +27 23 16.31  .78230 1.6975 146.4 22.3  143  78
2019 11 13 15  00 52 31.105   +27 22 38.97  .78223 1.6972 146.4 22.3  144  78
2019 11 13 16  00 52 26.726   +27 22 01.60  .78215 1.6969 146.3 22.3  146  78
2019 11 13 17  00 52 22.352   +27 21 24.21  .78207 1.6966 146.3 22.3  147  78
2019 11 13 18  00 52 17.982   +27 20 46.80  .78199 1.6963 146.2 22.3  148  78
2019 11 13 19  00 52 13.616   +27 20 09.36  .78192 1.6960 146.2 22.3  150  78
2019 11 13 20  00 52 09.255   +27 19 31.89  .78184 1.6957 146.1 22.3  151  78
2019 11 13 21  00 52 04.899   +27 18 54.40  .78176 1.6954 146.1 22.3  153  78
2019 11 13 22  00 52 00.547   +27 18 16.89  .78169 1.6951 146.1 22.3  154  78
2019 11 13 23  00 51 56.200   +27 17 39.35  .78161 1.6948 146.0 22.3  156  78
2019 11 14 00  00 51 51.857   +27 17 01.79  .78154 1.6945 146.0 22.3  157  78
2019 11 14 01  00 51 47.519   +27 16 24.20  .78146 1.6943 145.9 22.3  159  77
2019 11 14 02  00 51 43.185   +27 15 46.59  .78139 1.6940 145.9 22.3  160  77
2019 11 14 03  00 51 38.856   +27 15 08.95  .78131 1.6937 145.8 22.3  162  77
2019 11 14 04  00 51 34.531   +27 14 31.29  .78124 1.6934 145.8 22.3  163  77
2019 11 14 05  00 51 30.211   +27 13 53.61  .78117 1.6931 145.7 22.3  165  77
2019 11 14 06  00 51 25.896   +27 13 15.90  .78109 1.6928 145.7 22.3  166  77
2019 11 14 07  00 51 21.585   +27 12 38.16  .78102 1.6925 145.6 22.3  168  77
2019 11 14 08  00 51 17.279   +27 12 00.41  .78095 1.6922 145.6 22.3  169  77
2019 11 14 09  00 51 12.977   +27 11 22.63  .78088 1.6919 145.5 22.3  171  77
2019 11 14 10  00 51 08.680   +27 10 44.83  .78081 1.6916 145.5 22.3  172  77
2019 11 14 11  00 51 04.388   +27 10 07.00  .78073 1.6913 145.4 22.3  174  77
2019 11 14 12  00 51 00.101   +27 09 29.15  .78066 1.6910 145.4 22.3  175  77
2019 11 14 13  00 50 55.818   +27 08 51.28  .78059 1.6907 145.3 22.3  177  77
2019 11 14 14  00 50 51.539   +27 08 13.38  .78052 1.6905 145.3 22.3  178  77
2019 11 14 15  00 50 47.266   +27 07 35.47  .78045 1.6902 145.2 22.3  180  77
2019 11 14 16  00 50 42.997   +27 06 57.53  .78038 1.6899 145.2 22.3  181  77
2019 11 14 17  00 50 38.733   +27 06 19.56  .78031 1.6896 145.1 22.3  183  77
2019 11 14 18  00 50 34.473   +27 05 41.58  .78025 1.6893 145.1 22.3  185  77
2019 11 14 19  00 50 30.219   +27 05 03.57  .78018 1.6890 145.0 22.3  186  77
2019 11 14 20  00 50 25.969   +27 04 25.54  .78011 1.6887 145.0 22.3  188  77
2019 11 14 21  00 50 21.724   +27 03 47.48  .78004 1.6884 145.0 22.3  189  77
2019 11 14 22  00 50 17.483   +27 03 09.41  .77997 1.6881 144.9 22.3  191  77
2019 11 14 23  00 50 13.247   +27 02 31.31  .77991 1.6878 144.9 22.3  193  77
2019 11 15 00  00 50 09.016   +27 01 53.19  .77984 1.6875 144.8 22.3  194  77
2019 11 15 01  00 50 04.790   +27 01 15.05  .77977 1.6872 144.8 22.3  196  77
2019 11 15 02  00 50 00.569   +27 00 36.89  .77971 1.6869 144.7 22.3  198  77
2019 11 15 03  00 49 56.352   +26 59 58.71  .77964 1.6866 144.7 22.3  199  77
2019 11 15 04  00 49 52.140   +26 59 20.50  .77958 1.6863 144.6 22.3  201  77
2019 11 15 05  00 49 47.933   +26 58 42.28  .77951 1.6861 144.6 22.3  203  77
2019 11 15 06  00 49 43.731   +26 58 04.03  .77945 1.6858 144.5 22.3  204  77
2019 11 15 07  00 49 39.534   +26 57 25.76  .77938 1.6855 144.5 22.3  206  77
2019 11 15 08  00 49 35.341   +26 56 47.47  .77932 1.6852 144.4 22.3  208  77
2019 11 15 09  00 49 31.154   +26 56 09.16  .77925 1.6849 144.4 22.3  209  77